Vertical_Velocity
1 -3 -2 0 -2 -2 -2 -2 -2 -2 -3 -1 -10 4 -7 -5 -4 -3 -2 -2 -5 -6 -8 -6 -3 -1 -1 7 2 5 0 4 2 1 -2 1 6 -2 -2 -0 1 1 1 -4
-3 -0 -3 -4 -4 -3 -2 -3 -0 -5 -3 -2 -6 4 -8 -2 -4 -5 -4 -3 -3 -4 -10 -7 -8 -5 -5 -4 -1 5 8 0 1 6 0 -1 2 -0 -2 -0 1 -2 -2 -4
-3 0 -2 -2 0 -1 -2 0 -1 -4 -3 -6 -0 -5 3 -8 -7 -3 -3 -3 -3 -4 -9 -6 -4 -4 -1 -1 -2 -0 7 5 -1 4 4 1 6 2 2 0 -5 1 -8 -6
-1 1 -0 0 1 -3 0 -3 -2 -2 -4 -4 -6 -4 -2 -2 1 -4 -8 -4 -4 -5 -5 -1 1 1 -3 1 3 5 2 6 8 6 0 -3 2 5 -4 -0 -2 -3 -3 -3
0 -0 2 1 -2 -3 -1 -1 -2 -3 -4 -1 -7 -1 -3 0 -3 -3 -1 -3 -3 -3 -2 0 -2 2 -1 2 2 1 -1 -0 6 7 2 0 1 -4 0 -2 -1 -2 -2 -2
-1 -0 -0 1 -1 -1 -3 -2 -2 -3 -6 -5 4 -5 4 -10 -13 -3 -3 1 -2 -2 -2 -4 -2 -0 1 -1 0 -2 1 5 5 6 0 0 -4 -4 1 -2 -2 0 4 5
0 -0 -1 -2 -3 -4 -2 -3 -7 -1 8 -0 -6 -5 -4 -8 -7 2 1 0 0 -1 -1 -2 -0 -1 2 1 1 -0 -1 1 2 3 0 -1 -3 -3 0 1 2 7 3 3
0 -1 -2 -4 -3 -3 -1 -0 4 -3 -3 -5 -4 -5 -3 -3 -4 -4 -3 -0 -2 -2 -2 1 6 4 9 3 1 2 3 2 0 -3 -4 2 9 34 33 1 2 -1 -0 2
-4 -4 -2 -4 1 -1 3 -1 -1 -4 -0 0 -2 1 -4 -3 -3 -1 -1 -2 -4 -3 -2 -1 -3 -2 -3 3 6 3 -1 -0 -1 -1 1 -0 2 -0 3 -0 -0 0 1 1
-4 -2 -2 1 1 3 -1 -2 -2 2 -1 -3 -3 -1 -0 -2 -4 -3 -2 -2 -0 -2 -2 -2 -1 -6 -0 2 -0 2 6 7 3 4 -1 -2 -5 -1 -0 -1 3 9 3 0
-1 2 1 1 -2 -2 -2 -2 -1 -3 -2 -2 0 -4 -2 -0 -1 -1 -0 2 1 1 0 -2 0 -1 0 5 3 -1 4 2 3 6 10 10 9 6 2 1 3 5 5 4
1 -1 -2 -2 -2 -2 -5 -3 -2 -2 -1 -3 -2 -3 -4 -4 -2 -3 -3 -0 0 1 -0 -1 0 2 3 6 9 8 11 6 6 8 6 5 4 3 3 7 1 1 -1 4
-1 1 0 -1 -2 -2 -2 -2 -1 -1 -0 0 -2 -2 -2 -2 -3 -2 0 -2 1 -1 -4 -1 -2 2 2 4 4 4 4 4 1 -1 0 1 -0 1 1 0 3 3 1 1
1 0 1 2 2 -1 -2 -2 -1 -2 -1 0 1 -1 -3 1 2 1 0 2 0 -0 3 4 3 1 0 -1 -1 -0 -1 -2 -1 -1 0 1 1 1 1 2 1 -2 -1 0
-0 2 1 0 -0 0 1 1 -1 -1 -2 -0 -1 -1 -1 -0 -0 0 1 0 0 1 1 0 -1 -0 0 1 2 2 2 2 2 2 1 -1 -2 -1 -0 -1 -0 2 2 0
1 -1 -1 -2 -0 0 0 -1 -1 -2 -1 -1 -2 -2 -1 -1 -1 -2 -1 0 -1 -2 -1 0 1 1 1 1 0 -1 -1 -2 -3 -3 -2 -2 -1 0 -1 -1 -1 -3 -4 -1
-2 -2 -1 -1 0 1 1 0 0 1 1 1 1 0 -0 -1 0 1 2 1 0 1 1 -1 -2 -3 -4 -4 -2 -3 -2 -1 -1 1 1 2 1 1 1 0 -0 0 -1 -3
0 -1 -1 -0 -1 1 -1 -0 0 0 1 -0 0 0 1 1 2 0 0 0 -0 -0 0 0 0 1 2 2 3 3 3 2 2 1 2 2 2 2 1 1 -1 0 0 1
0 0 1 -0 -2 -2 -3 -2 -2 -2 -0 -1 -2 -1 -1 -1 -1 -0 -0 1 1 1 1 2 1 1 0 -1 -2 -0 0 -1 -2 -1 -0 -0 1 -0 -1 -1 -1 -2 -1 -3
-1 -1 -1 0 -0 1 -1 -0 -0 -1 -1 -1 -0 -1 -1 -1 -1 -2 -2 -1 -1 -0 0 -0 -0 -0 -1 -1 -0 0 2 2 1 1 0 1 2 2 3 3 3 2 2 5
0 0 -0 0 -0 3 0 -1 -0 -1 -0 1 0 0 0 0 1 1 1 -0 -0 1 1 1 0 -1 1 2 1 1 -0 -1 -1 -1 -0 -1 -1 0 -1 1 -4 -0 -1 0
2 2 -1 1 -2 -1 -2 0 -4 -1 -2 -1 -0 1 0 0 1 0 -1 1 0 -1 -2 -2 1 1 -3 -3 -1 -1 -1 -2 -3 -2 -3 -2 -4 -6 -5 -5 -4 -5 -6 -2
1 1 -3 -4 -6 -3 -1 -1 -1 -0 -1 1 -1 1 -1 -1 -1 0 1 -1 -1 0 -4 -5 -5 -0 -1 -3 -2 0 1 -0 -2 -3 -3 -2 -4 -4 -3 -2 -3 -1 -3 -5
-0 -2 3 2 -6 2 3 2 2 2 1 -2 -1 1 1 2 2 1 -0 -1 -3 -4 -4 -2 -2 -0 2 4 5 4 0 -0 0 -0 -1 -2 -2 -2 -4 -3 -3 -3 -3 -2
-6 3 -0 6 -2 0 -1 2 1 2 2 -2 -1 -0 -1 1 -2 -2 -2 -1 -1 0 1 2 1 -1 -2 -2 -1 -0 -2 -1 -1 -3 -0 -1 -1 -1 0 -2 -3 -4 -3 -6
-5 5 0 5 5 0 -0 1 2 1 0 -2 -1 -1 -3 -1 -3 -1 1 2 1 2 -2 -8 -4 -0 -1 -2 -2 -4 -1 -1 0 2 1 -0 -1 0 0 1 9 -9 -4 1
Height
5696 5701 5706 5711 5714 5717 5719 5721 5722 5722 5723 5722 5722 5720 5716 5712 5709 5705 5701 5697 5693 5690 5685 5683 5682 5681 5682 5682 5686 5690 5694 5700 5703 5708 5712 5716 5721 5724 5725 5725 5726 5728 5731 5734
5693 5697 5703 5707 5710 5712 5715 5716 5716 5716 5715 5716 5713 5711 5706 5700 5696 5692 5687 5682 5676 5671 5664 5660 5657 5655 5651 5653 5660 5667 5670 5677 5684 5690 5696 5703 5707 5711 5713 5714 5714 5715 5719 5723
5689 5695 5699 5702 5705 5707 5709 5710 5710 5711 5709 5708 5705 5704 5696 5691 5686 5682 5675 5670 5664 5657 5650 5642 5637 5634 5632 5633 5637 5641 5646 5656 5667 5676 5682 5688 5693 5696 5700 5700 5702 5703 5707 5712
5686 5690 5694 5698 5701 5703 5705 5706 5705 5704 5703 5701 5697 5695 5690 5684 5677 5672 5665 5661 5654 5648 5641 5636 5632 5628 5624 5623 5625 5630 5636 5643 5654 5660 5666 5674 5681 5686 5685 5688 5691 5692 5695 5699
5686 5688 5692 5695 5698 5700 5702 5701 5700 5699 5697 5695 5693 5691 5684 5677 5672 5663 5658 5652 5646 5642 5638 5634 5630 5626 5623 5620 5621 5625 5632 5639 5645 5650 5656 5663 5669 5672 5675 5677 5680 5682 5684 5686
5684 5688 5691 5694 5696 5697 5698 5698 5697 5695 5693 5692 5689 5684 5677 5676 5667 5656 5652 5648 5642 5638 5636 5633 5629 5627 5624 5622 5623 5624 5630 5635 5640 5645 5650 5656 5661 5665 5667 5668 5670 5672 5673 5674
5684 5687 5690 5693 5694 5696 5696 5695 5693 5692 5690 5687 5684 5681 5676 5672 5666 5656 5649 5644 5641 5638 5635 5632 5629 5628 5626 5625 5625 5628 5630 5634 5637 5640 5644 5650 5654 5658 5660 5660 5661 5662 5663 5664
5685 5689 5690 5692 5694 5695 5694 5694 5691 5689 5687 5685 5682 5679 5674 5668 5663 5658 5651 5646 5642 5639 5636 5634 5632 5631 5630 5630 5629 5629 5631 5633 5635 5638 5641 5645 5648 5648 5652 5654 5654 5654 5653 5655
5686 5689 5690 5692 5692 5693 5692 5691 5690 5688 5687 5684 5682 5678 5672 5667 5661 5655 5651 5647 5644 5641 5639 5636 5635 5633 5633 5633 5633 5634 5634 5635 5636 5639 5641 5642 5645 5647 5648 5648 5648 5647 5648 5650
5687 5688 5690 5690 5691 5692 5691 5691 5690 5686 5686 5683 5681 5676 5672 5667 5661 5655 5651 5647 5644 5642 5640 5639 5638 5635 5635 5634 5634 5635 5636 5638 5639 5640 5641 5643 5644 5644 5644 5643 5643 5643 5643 5643
5688 5690 5691 5691 5692 5692 5691 5690 5689 5688 5686 5684 5681 5678 5673 5668 5663 5657 5654 5651 5649 5647 5645 5643 5642 5640 5639 5639 5639 5637 5639 5640 5639 5639 5640 5641 5641 5640 5640 5639 5638 5637 5637 5637
5691 5692 5692 5693 5693 5693 5692 5691 5690 5689 5687 5684 5681 5680 5675 5672 5668 5664 5661 5658 5655 5652 5649 5648 5646 5646 5645 5644 5644 5643 5643 5642 5641 5641 5641 5640 5640 5639 5637 5636 5635 5634 5633 5631
5695 5696 5696 5696 5697 5695 5693 5692 5691 5689 5687 5685 5683 5680 5676 5673 5671 5668 5665 5663 5660 5656 5653 5653 5652 5650 5649 5648 5647 5646 5645 5643 5642 5641 5640 5639 5638 5637 5635 5634 5632 5631 5630 5628
5697 5697 5697 5697 5696 5695 5693 5692 5690 5689 5687 5684 5682 5679 5677 5674 5671 5669 5667 5664 5661 5659 5657 5655 5653 5651 5649 5648 5647 5645 5644 5643 5641 5640 5639 5638 5636 5635 5633 5632 5630 5629 5626 5624
5698 5698 5697 5696 5695 5693 5691 5689 5688 5687 5686 5684 5682 5679 5677 5674 5672 5670 5668 5665 5663 5660 5658 5655 5653 5651 5650 5649 5648 5646 5644 5643 5641 5640 5638 5636 5634 5632 5630 5628 5625 5623 5620 5618
5699 5698 5697 5695 5693 5692 5690 5688 5687 5686 5685 5683 5681 5679 5677 5675 5672 5670 5668 5666 5663 5661 5658 5656 5654 5652 5650 5649 5647 5645 5643 5641 5639 5637 5634 5632 5629 5626 5623 5621 5618 5616 5613 5610
5701 5699 5697 5696 5694 5692 5692 5689 5688 5686 5685 5683 5680 5679 5677 5674 5672 5669 5667 5665 5663 5661 5658 5656 5654 5652 5650 5647 5645 5643 5640 5637 5634 5631 5628 5625 5621 5618 5615 5612 5609 5606 5602 5598
5702 5700 5699 5697 5696 5695 5693 5691 5689 5687 5685 5683 5680 5678 5676 5673 5671 5669 5666 5664 5661 5659 5656 5654 5651 5649 5646 5643 5640 5637 5635 5632 5629 5625 5622 5618 5614 5610 5605 5601 5596 5592 5588 5583
5702 5701 5700 5698 5696 5695 5693 5691 5689 5687 5686 5683 5680 5678 5676 5673 5670 5667 5664 5661 5659 5656 5653 5651 5648 5645 5642 5638 5635 5631 5628 5623 5619 5615 5610 5606 5601 5597 5592 5587 5582 5576 5571 5565
5704 5702 5701 5698 5697 5695 5693 5690 5688 5686 5683 5680 5678 5675 5672 5669 5666 5664 5661 5658 5655 5652 5649 5645 5642 5638 5634 5630 5625 5621 5616 5611 5606 5601 5596 5590 5584 5579 5573 5568 5562 5555 5549 5543
5703 5702 5700 5698 5696 5694 5692 5689 5686 5685 5684 5678 5675 5672 5669 5666 5663 5659 5656 5652 5649 5646 5642 5638 5634 5631 5627 5623 5618 5612 5607 5601 5595 5589 5583 5576 5569 5563 5556 5548 5541 5535 5528 5522
5703 5701 5699 5697 5694 5693 5689 5687 5684 5682 5678 5675 5671 5668 5664 5661 5657 5653 5650 5647 5643 5639 5636 5632 5628 5624 5619 5614 5608 5602 5596 5589 5582 5574 5566 5558 5551 5543 5536 5529 5522 5514 5506 5499
5703 5702 5699 5696 5693 5689 5686 5683 5679 5676 5672 5670 5666 5662 5657 5654 5650 5647 5644 5641 5637 5633 5629 5624 5619 5614 5609 5604 5597 5589 5582 5574 5566 5558 5550 5542 5534 5526 5518 5509 5501 5493 5484 5476
5700 5698 5696 5692 5688 5684 5680 5677 5672 5669 5665 5662 5657 5653 5650 5647 5643 5640 5637 5632 5627 5622 5617 5613 5608 5603 5597 5590 5584 5577 5568 5560 5552 5543 5534 5525 5517 5508 5499 5490 5481 5473 5464 5456
5694 5693 5691 5689 5684 5680 5675 5670 5666 5662 5658 5654 5650 5647 5643 5638 5635 5633 5628 5624 5621 5617 5612 5608 5602 5595 5588 5581 5573 5565 5556 5547 5538 5528 5518 5509 5500 5491 5482 5472 5462 5452 5442 5433
5683 5685 5681 5680 5677 5673 5669 5664 5659 5656 5651 5648 5644 5640 5636 5632 5629 5625 5622 5618 5614 5610 5605 5599 5593 5586 5577 5569 5562 5553 5544 5534 5524 5513 5503 5493 5484 5475 5466 5457 5447 5432 5423 5411